Location: ????????
(60.4333°N, 46.4710°E)
Time: 19:42:50
(UTC+00:00)

ISS - Pass Details

Date: 25 November 2020
Orbit: 418 x 419 km, 51.6° (Epoch: 18 January)

Event Time Altitude Azimuth Distance (km) Brightness Sun altitude
Rises 14:40:33 0° 215° (SW) 2,363 0.8 -18.0°
Reaches altitude 10° 14:43:32 10° 186° (S) 1,501 -0.8 -18.4°
Enters shadow 14:45:00 13° 160° (SSE) 1,343 -1.3 -18.5°
